Preview of NWS' New Version of Forecast
This preview is not operational and should not be used for support decisions.
Latest weather observations around

Bremerton, Bremerton National Airport (KPWT)

Using International System of Units (Switch to English Units)
Date/ Time (PDT) Wind (kph) Vis. (km) Weather Sky Cond. Temp (°C) Rel. Humidity Wind Chill (°C) Heat Index (°C) Pressure Precip. (cm)
Air Dwpt 6 hour Altimeter (hPa) Sea level (hPa) 1 hr 3 hr 6 hr
Max Min
Oct 15 13:56 NE 13 16.09 Clear CLR 18 4     41%     1027.4 1028.9      
Oct 15 12:56 NE 17 16.09 Clear CLR 17 4     44%     1027.8 1029.5      
Oct 15 11:56 NE 17 16.09 Clear CLR 16 6     51%     1028.1        
Oct 15 09:56 NE 17 16.09 Clear CLR 11 6     69%     1028.5        
Oct 15 08:56 ENE 17 16.09 Clear CLR 9 4     71% 7   1028.1        
Oct 15 06:56   16.09 Clear CLR 9 2     63%     1027.4 1029.4      
Oct 15 05:56   16.09 Clear CLR 9 2     61%     1027.4 1029.2      
Oct 15 03:56 NE 9 16.09 Clear CLR 9 2     59% 8   1027.8 1029.3      
Oct 15 02:56 NE 17 16.09 Clear CLR 11 2     54%     1027.8 1029.4      
Oct 15 00:56   16.09 Clear CLR 11 1     48%     1027.4 1029.3      
Oct 14 23:56   16.09 Clear CLR 12 0     45%     1027.8 1029.5      
Oct 14 21:56 NE 15 16.09 Clear   11 2     52%     1027.8        
Oct 14 20:56 NE 13 16.09 Clear CLR 12 1     48%     1027.8        
Oct 14 19:56 NNE 13 16.09 Clear CLR 12 2     52%     1027.8        
Oct 14 18:56 NE 13 16.09 Clear CLR 13 1     45%     1027.8        
Oct 14 17:56 NNE 9 16.09 Clear CLR 16 1     35%     1027.8        
Oct 14 15:56 NE 13 16.09 Clear CLR 19 -3     22%     1028.1        
Oct 14 14:56 ENE 11 14.48 Clear CLR 19 0     28%     1028.5 1030      
Oct 14 12:56 NE 15 16.09 Clear CLR 17 1     34%     1029.1 1030.8      
Oct 14 11:56 NE 15 16.09 Clear CLR 16 3     42%     1029.5 1031.1      
Oct 14 10:56 NE 13 16.09 Clear CLR 14 3     47%     1029.5        
Oct 14 09:56 NE 18 16.09 Clear CLR 13 3     51%     1029.5        
Oct 14 08:56 NE 17 16.09 Clear CLR 11 3     59%     1029.1        
Oct 14 07:56 NE 17 16.09 Clear CLR 8 3     71% 6   1028.8 1030.5      
Oct 14 06:56   16.09 Clear CLR 8 4     74%     1028.5 1030.2      
Oct 14 05:56   16.09 Clear CLR 8 3     68%     1028.1        
Oct 14 04:56 ENE 15 16.09 Clear CLR 9 2     63% 7   1027.4 1029.4      
Oct 14 03:56 NE 13 16.09 Clear CLR 9 2     63% 7   1027.1 1029      
Oct 14 02:56 NE 15 16.09 Clear CLR 9 3     63% 7   1027.1 1028.7      
Oct 14 01:56   16.09 Clear CLR 11 1     52%     1026.8 1028.4      
Oct 14 00:56 ENE 18 16.09 Clear CLR 11 1     50%     1026.4 1028.1      
Oct 13 23:56 ENE 17 16.09 Clear CLR 11 1     48%     1025.7 1027.5      
Oct 13 22:56 ENE 18 16.09 Clear CLR 12 0     43%     1025.4 1027.2      
Oct 13 21:56 ENE 17 16.09 Clear CLR 13 0     41%     1025.1 1027      
Oct 13 20:56 NNE 18 16.09 Clear CLR 14 -1     37%     1024.7 1026.8      
Oct 13 19:56 NNE 21 16.09 Clear CLR 14 -1     34%     1024.7 1026.4      
Oct 13 18:56 NNE 15 16.09 Clear CLR 14 -1     36%     1024.4 1026.3      
Oct 13 17:56 NE 21 16.09 Clear CLR 15 1     37%     1024.1 1026      
Oct 13 16:56 NNE 15 16.09 Clear CLR 17 1     34%     1024.4 1026.1      
Oct 13 15:56   16.09 Clear CLR 17 1     35%     1024.4 1026.2      
Oct 13 14:56 NE 28 16.09 Clear CLR 18 1     33%     1024.7 1026.5      
Oct 13 13:56 NNE 24 16.09 Clear CLR 18 1     31%     1024.7 1026.6      
Oct 13 12:56 NE 24 16.09 Clear CLR 17 2     37%     1024.7 1026.7      
Oct 13 11:56 NNE 17 16.09 Clear CLR 17 3     41%     1025.1 1027      
Oct 13 10:56 ENE 13 16.09 Clear CLR 15 5     51%     1025.4 1027.3      
Oct 13 09:56 5 16.09 Clear CLR 12 7     74%     1025.4 1027.2      
Oct 13 08:56 SW 9 16.09 Clear CLR 8 7     93% 6   1025.1 1027      
Oct 13 07:56 ESE 5 16.09 Clear CLR 9 5     77% 8   1024.1 1025.9      
Oct 13 06:56 ENE 13 16.09 Clear CLR 9 6     83% 7   1023.4 1025.2      
Oct 13 05:56 ENE 15 16.09 Clear CLR 8 7     90% 6   1022.7 1024.5      
Oct 13 02:56 Calm 16.09 Clear CLR 4 4     100%     1022 1023.9      
Oct 13 02:42 Calm 16.09 Clear CLR 5 4     93%     1021.7        
Oct 13 02:33 Calm 4.02 Fog/Mist CLR 5 4     93%     1021.7        
Oct 13 01:56 Calm 16.09 Clear CLR 6 6     97%     1021.7 1023.6      
Oct 12 21:56 ENE 11 16.09 Clear CLR 10 8     86%     1020 1022.1      
Oct 12 20:56 NE 15 16.09 Clear CLR 11 8     83%     1019.3 1021.2      
Oct 12 14:56 ENE 11 16.09 Clear CLR 16 8     60%     1019.3 1021.1      
Oct 12 10:08 Calm 16.09 Partly Cloudy SCT001 10 9     94%     1020.7        
Oct 12 09:59 Calm 11.27 Mostly Cloudy BKN001 9 9     100%     1020.7        
Oct 12 09:51 Calm 4.02 Fog/Mist OVC001 9 8     96%     1020.7        
Oct 12 09:50 Calm 3.22 Fog/Mist OVC001 9 8     93%     1020.7        
Oct 12 09:38 Calm 0.8 Fog OVC001 8 7     93%     1020.7        
Oct 12 08:56 Calm 0.4 Fog OVC001 6 6     100%     1020.7   0    
Oct 12 05:56 Calm 16.09 Clear CLR 3 3     97%     1020.3        
Oct 12 03:56 Calm 16.09 Clear CLR 4 4     97%     1020.7        
Oct 11 22:56 Calm 16.09 Clear CLR 6 6     97%     1020        
Oct 11 19:56 Calm 16.09 Clear CLR 9 7     89%     1019.7        
Oct 11 18:56 Calm 16.09 Clear CLR 11 8     83%     1019.7        
Oct 11 14:56 Calm 16.09 Clear CLR 17 8     58%     1020        
Oct 11 09:56 Calm 16.09 Mostly Cloudy BKN009 9 8     93%     1021        
Oct 11 09:46 Calm 14.48 Mostly Cloudy BKN009 8 8     100%     1021        
Oct 11 09:17 SSW 5 2.41 Fog/Mist SCT009 7 7     100% 6   1021        
Oct 11 09:07 SSW 5 14.48 Partly Cloudy SCT007 7 6     93% 6   1021        
Oct 11 08:22 Calm 14.48 Cloudy OVC007 8 8     100%     1020.7        
Oct 11 03:05 Calm 2.01 Fog/Mist CLR 4 4     100%     1019        
Oct 10 23:56 ENE 8 16.09 Clear CLR 9 7     83% 8   1018.3        
Oct 10 15:56 ENE 9 16.09 Clear CLR 16 9     62%     1016.3        
Notice The following observation data may not be complete
Oct 10 07:07 Calm 4.02 Fog/Mist FEW090   4      %     1016.9        
Oct 10 04:31 Calm 1.21 Fog/Mist CLR 6 6     100%     1016.9        
Oct 10 04:28 Calm 2.41 Fog/Mist CLR 6 6     100%     1016.9        
Oct 10 03:27 Calm 4.83 Fog/Mist CLR 6 6     100%     1016.9        
Oct 10 03:24 Calm 2.41 Fog/Mist FEW080 6 6     100%     1016.9        
Oct 09 22:14 Calm 2.82 Fog/Mist CLR 7 6     93%     1016.9        
Oct 09 20:37 Calm 2.41 Fog/Mist CLR 7 6     93%     1016.3        
Oct 09 15:56 E 13 16.09 Clear CLR 16 8     62%     1014.9 1016.6      
Oct 09 14:56 NE 15 16.09 Clear CLR 16 9     62%     1014.6 1016.3      
Oct 09 12:56 ENE 11 16.09 Cloudy SCT029 BKN035 OVC042 14 10     75%     1014.9        
Oct 09 11:56 SSE 8 16.09 Cloudy FEW018 BKN025 OVC030 13 11     87%     1014.6 1016.2      
Oct 09 11:11 Calm 16.09 Mostly Cloudy FEW008 BKN027 14 11     82%     1014.2        
Notice The following observation data may not be complete
Oct 09 06:02   16.09 Light Rain SCT005 OVC010          %         0    
Oct 09 05:56 NE 5 16.09 Light Rain BKN005 OVC010 11 11     100%     1010.5   0    
Oct 09 04:31 ENE 5 11.27 Cloudy OVC005 11 11     100%     1009.8        
Oct 09 04:15 E 5 4.83 Fog/Mist SCT002 BKN007 OVC013 11 11     100%     1009.8        
Oct 09 04:13 E 5 3.22 Fog/Mist BKN002 BKN007 OVC013 11 11     100%     1009.8        
Oct 09 04:10 E 5 1.61 Fog/Mist BKN002 BKN007 OVC013 11 11     100%     1009.8        
Oct 09 03:56 Calm 0.8 Fog OVC002 11 11     100%     1009.8        
Oct 09 03:06 SW 8 2.41 Fog/Mist FEW002 SCT021 9 9     100% 8   1009.5        
Oct 09 02:56 E 5 9.66 Fog/Mist SCT002 11 11     97%     1009.5 1011.3 0    
Oct 09 02:45 Calm 9.66 Fog/Mist BKN002 11 11     100%     1009.8   0    
Oct 09 02:09 Calm 9.66 Fog/Mist BKN004 BKN049 11 10     94%     1009.8        
Oct 09 01:56 Calm 12.87 Mostly Cloudy FEW004 BKN049 11 11     100%         0 0  
Notice The following observation data may not be complete
Oct 09 00:24   4.83 Light Rain and Fog/Mist BKN004 OVC007          %         0    
Oct 08 23:28 Calm 4.02 Light Rain and Fog/Mist OVC004 12 11     94%     1010.5   0    
Oct 08 22:19 Calm 8.05 Fog/Mist BKN004 BKN019 OVC035 11 11     100%     1011.5   0    
Oct 08 22:11 Calm 9.66 Fog/Mist BKN002 BKN019 OVC035 11 11     100%     1011.9        
Oct 08 21:56 SE 5 4.83 Fog/Mist FEW002 OVC035 11 11     100%     1011.9        
Oct 08 21:28 Calm 12.87 Cloudy FEW002 BKN035 OVC060 11 11     100%     1012.5        
Oct 08 21:23 Calm 4.02 Fog/Mist BKN035 OVC060 11 11     100%     1012.5        
Oct 08 17:56 Calm 16.09 Cloudy OVC010 12 11     93%     1013.6   0    
Oct 08 16:20 WSW 8 16.09 Cloudy BKN006 OVC011 12 12     100%     1014.2        
Oct 08 14:56 Calm 16.09 Cloudy BKN007 OVC012 13 11     89%     1014.6   0    
Oct 08 12:23 Calm 16.09 Cloudy SCT009 OVC015 12 11     94%     1015.6        
Oct 08 10:56 Calm 8.05 Fog/Mist OVC006 12 11     93%     1016.3   0   0
Oct 08 08:56 Calm 4.83 Fog/Mist OVC002 11 11     100%     1016.6   0    
Oct 08 08:51 Calm 4.83 Clear   11 11     100%     1016.6   0    
Oct 08 07:56 Calm 2.41 Fog/Mist BKN004 OVC008 11 10     96%     1016.9   0 0  
Oct 08 04:56 Calm 3.22 Light Rain and Fog/Mist OVC002 11 10     96%     1016.9   0   0
Notice The following observation data may not be complete
Oct 08 02:56 SSW 9 16.09 Light Rain OVC004          %     1017.6   0    
Oct 07 21:56 SSW 11 16.09 Light Rain OVC004 11 10     96%     1019.3   0    
Oct 07 20:56 S 9 14.48 Light Rain OVC004 11 10     96%     1019.3   0    
Oct 07 18:56 SSW 5 16.09 Cloudy OVC006 11 9     92%     1019.7        
Oct 07 15:29 SSW 15 16.09 Light Rain BKN008 BKN013 BKN035 11 10     94%     1021.3   0    
Oct 07 14:56 SSW 9 16.09 Light Rain OVC010 11 10     93%     1021.3   0    
Oct 07 12:56 SSW 11 16.09 Light Rain BKN006 OVC009 11 10     93%     1022.4   0    
Oct 07 08:56 SSW 8 8.05 Light Rain and Fog/Mist OVC003 8 8     100% 7   1022.7   0    
Oct 07 07:07 Calm 9.66 Fog/Mist OVC003 8 8     100%     1022.7        
Oct 07 05:29 S 5 4.02 Fog/Mist OVC003 8 8     100% 7   1022.4        
Oct 07 04:17 Calm 4.83 Fog/Mist OVC003 9 8     93%     1022.7        
Oct 07 04:03 Calm 2.41 Fog/Mist OVC003 9 8     93%     1022.7        
Oct 07 02:56 Calm 0.4 Fog OVC003 9 8     96%     1023        
Oct 07 02:41 Calm 0.4 Fog BKN003 8 8     100%     1023.4        
Oct 07 02:19 Calm 12.87 Mostly Clear FEW003 7 7     100%     1023.4        
Oct 06 22:18 Calm 6.44 Fog/Mist CLR 6 6     100%     1023        
Oct 06 22:08 Calm 2.82 Fog/Mist CLR 7 6     93%     1023        
Oct 06 19:42 Calm 16.09 Partly Cloudy SCT030 11 8     82%     1023.4        
Oct 06 15:56 SSW 9 4.83 Haze OVC026 14 8     69%     1022        
Oct 06 15:08 5 16.09 Mostly Cloudy SCT029 BKN035 15 8     63%     1021.3        
Oct 06 13:56 SW 11 16.09 Cloudy FEW023 OVC029 14 8     69%     1021.3        
Oct 06 13:53 SW 11 16.09 Cloudy BKN029 OVC037 14 8     67%     1021.3        
Oct 06 13:27 SW 8 16.09 Partly Cloudy SCT029 14 7     63%     1021.3        
Oct 06 08:56 Calm 16.09 Clear CLR 9 7     83%     1019.7        
Oct 06 04:56   16.09 Clear CLR 8 7     90%     1015.9 1017.6      
Oct 06 02:56 ENE 15 16.09 Clear CLR 8 7     90% 6   1014.9 1016.8      
Oct 06 01:56 ENE 11 16.09 Partly Cloudy SCT060 9 7     89% 7   1014.6 1016.7      
Oct 05 22:13 NNE 11 16.09 Cloudy FEW009 OVC041 9 8     93% 7   1013.2        
Oct 05 18:43 NE 13 4.83 Light Rain and Fog/Mist BKN004 OVC010 9 8     93% 7   1012.9   0    
Oct 05 14:56 NE 11 9.66 Light Rain and Fog/Mist BKN006 BKN026 OVC035 9 8     96% 7   1013.9   0    
Oct 05 14:45 NE 13 11.27 Light Rain FEW005 BKN026 OVC036 9 8     93% 7   1013.9   0    
Oct 05 13:56 NNE 11 9.66 Light Rain and Fog/Mist BKN006 OVC030 9 8     93% 8   1014.9   0 0  
Oct 05 10:56 Calm 6.44 Light Rain and Fog/Mist SCT004 SCT009 BKN022 8 7     93%     1017.3   0   0
Oct 05 10:27 Calm 9.66 Light Rain and Fog/Mist FEW004 BKN029 OVC034 8 7     93%     1017.3   0    
Oct 05 10:16 Calm 11.27 Light Rain OVC032 8 7     93%     1017.6   0    
Oct 05 09:56 Calm 11.27 Light Rain BKN028 OVC035 8 7     96%     1018   0    
Oct 05 05:56 Calm 16.09 Cloudy OVC039 7 6     93%     1018.3        
Oct 05 03:56 Calm 16.09 Clear CLR 4 4     97%     1018.6        
Oct 05 02:56 Calm 16.09 Clear CLR 3 3     100%     1019.3        
Oct 05 01:56 Calm 16.09 Clear CLR 4 3     93%     1019.7 1021.3      
Oct 05 00:56 Calm 16.09 Clear CLR 4 3     96%     1019.3        
Oct 04 23:56 Calm 16.09 Clear CLR 3 3     97%     1019.7 1021.3      
Oct 04 21:56 Calm 16.09 Clear CLR 6 4     92%     1019 1020.9      
Oct 04 20:56 Calm 16.09 Clear CLR 7 5     89%     1019 1020.8      
Oct 04 18:56 Calm 16.09 Mostly Cloudy BKN046 12 6     66%     1018.3 1020      
Oct 04 17:56 SSE 5 16.09 Mostly Clear FEW046 14 4     53%     1017.6 1019.4      
Oct 04 16:56 ESE 8 16.09 Mostly Cloudy BKN044 14 5     55%     1017.3 1019.2      
Oct 04 15:56 SE 5 16.09 Mostly Cloudy BKN041 14 4     51%     1016.9 1018.8      
Oct 04 14:56 SSW 13 16.09 Mostly Cloudy BKN043 15 5     51%              
Oct 04 13:56 Calm 16.09 Clear CLR 13 4     53%     1016.6 1018.7      
Oct 04 12:56 8 16.09 Clear CLR 14 4     49%     1016.6 1018.6      
Oct 04 11:56 9 16.09 Clear CLR 13 4     55%     1016.3 1018.2      
Oct 04 10:56   16.09 Clear CLR 11 4     61%     1015.9 1017.9     0
Oct 04 09:56 ENE 11 16.09 Clear CLR 10 4     66%     1015.6 1017.7      
Oct 04 08:56 Calm 16.09 Mostly Clear FEW110 6 4     86%     1015.6 1017.4 0    
Oct 04 07:56 Calm 16.09 Cloudy OVC110 6 4     86%     1014.9 1016.9      
Oct 04 06:56 Calm 16.09 Cloudy OVC110 6 3     85%     1014.2 1016.2      
Oct 04 05:56 Calm 16.09 Mostly Cloudy BKN110 7 3     79%     1013.9 1015.8      
Oct 04 03:56 NE 8 16.09 Cloudy OVC110 7 3     74% 6   1013.9        
Oct 04 02:56 ENE 5 16.09 Cloudy OVC110 7 3     79% 6   1013.6 1015.7      
Oct 04 01:56 Calm 16.09 Partly Cloudy SCT070 SCT110 7 2     71%     1013.9        
Oct 04 00:56 NE 11 16.09 Cloudy OVC070 8 2     65% 6   1013.6 1015.5      
Oct 03 23:56 NE 9 16.09 Cloudy OVC075 8 3     68% 7   1013.6        
May 15 09:04 SW 13 16.09 Cloudy OVC007 13 11     88%     1014.6        
May 14 08:56 Calm 16.09 Clear CLR 17 12     75%     1014.9 1016.4      
May 14 07:56 SSW 9 16.09 Clear CLR 14 12     87%     1015.2        
Notice The following observation data may not be complete
May 13 20:56 Calm 16.09 Clear CLR   11      %     1012.5        
May 13 12:56 NNE 11 16.09 Clear CLR 24 13     50%   24 1014.2        
May 13 02:56 Calm 16.09 Clear CLR 8 7     90%     1014.9 1016.4      
May 12 17:56 ENE 15 16.09 Clear CLR 23 9     40%   23 1015.6        
May 12 01:56 Calm 16.09 Clear CLR 7 7     100%     1022.7        
May 12 00:56 Calm 16.09 Clear CLR 8 8     97%     1022.7        
May 11 15:56 Calm 16.09 Mostly Cloudy BKN033 17 9     60%     1023.7        
May 11 12:56 SSE 8 16.09 Cloudy BKN024 OVC028 14 9     74%     1025.1 1027      
May 11 07:56 Calm 16.09 Cloudy BKN019 OVC027 9 8     93%     1025.1 1026.8      
Jun 11 09:56 SSW 5 16.09 Cloudy OVC005 11 9     89%     1018        
Jun 10 19:56 NNE 8 16.09 Clear CLR 17 7     53%     1012.5 1014.2      
Jun 10 15:56 WSW 5 16.09 Cloudy SCT046 OVC060 16 8     58%     1011.2        
Notice The following observation data may not be complete
Jun 10 08:40   16.09 Cloudy OVC006          %              
Jun 10 02:15 WSW 11 16.09 Cloudy OVC004 9 8     93% 7   1011.5        
Jun 09 16:56 SSW 13 16.09 Light Rain FEW026 14 8     65%     1010.2 1012.1 0   0
Jun 09 04:36 Calm 16.09 Cloudy SCT021 BKN028 OVC048 9 8     93%     1013.6        
Jun 08 09:48 SSW 15 16.09 Light Rain BKN006 OVC030 13 12     94%     1005.1   0    
Jun 08 04:56 SW 5 16.09 Light Rain SCT002 BKN010 OVC043 11 11     100%     1003.7   0   0
Jun 07 09:56 Calm 16.09 Clear   19 9     52%     1009.2        
Jun 06 02:56 E 8 16.09 Clear   12 6     66%     1016.9        
Jun 05 16:56 ENE 15 16.09 Clear   22 4     31%   21 1018.3